Theta_e
318 322 325 327 331 336 338 338 337 342 341 339 338 341 350 351 359 361 351 352 355 355 349 348 347 345 343 343 346 344 340 337 334 333 334 335 334 336 339 341 343 342 340 337 332 330 327 325 326
320 322 325 328 334 338 338 337 338 341 337 336 338 342 356 354 348 355 350 354 354 355 349 348 346 344 342 343 345 346 342 339 334 334 335 336 335 336 339 343 346 344 342 332 322 324 324 327 327
318 321 325 330 334 337 338 338 339 339 336 335 339 352 357 350 352 354 348 354 353 355 355 347 344 341 341 343 345 346 344 341 335 335 336 337 336 337 338 339 341 340 332 327 320 323 326 330 328
322 324 326 330 335 335 336 336 338 338 336 335 339 354 350 342 353 352 348 353 352 352 356 345 342 339 340 343 345 346 346 343 337 336 338 338 337 336 336 338 335 330 330 326 320 325 327 332 331
322 324 331 334 335 335 335 338 340 339 336 334 337 355 352 352 350 349 349 351 351 352 356 344 341 337 338 342 345 346 346 344 339 338 342 340 338 335 335 336 330 329 331 323 320 323 327 330 331
322 324 329 333 335 335 335 338 338 336 336 334 335 351 356 350 349 348 349 349 350 357 353 343 339 337 338 341 345 346 346 345 343 342 344 341 338 334 334 334 330 331 329 322 320 321 324 326 328
322 325 329 333 333 335 336 335 336 336 336 334 335 345 356 351 349 348 347 349 352 356 351 346 339 337 337 339 343 345 346 345 345 346 345 341 336 333 333 333 330 331 327 323 321 320 320 321 322
322 324 328 331 334 334 335 335 334 335 336 330 335 352 358 352 350 349 348 349 351 352 351 349 347 340 337 338 340 343 344 345 345 345 343 337 332 332 333 331 331 331 328 323 322 320 319 319 319
322 324 327 329 332 333 335 333 333 333 330 329 334 355 357 352 351 349 348 349 350 352 350 348 346 345 344 344 337 338 340 342 341 338 334 331 332 332 333 330 338 334 327 324 321 320 320 320 319
322 325 326 328 329 331 333 331 331 331 329 329 330 346 355 352 351 350 349 349 349 351 350 348 346 345 344 344 342 337 337 335 333 333 331 330 336 341 341 341 336 336 336 326 324 322 321 322 320
323 323 325 328 325 330 332 327 330 328 330 330 333 339 340 352 350 350 349 348 349 349 349 347 346 346 345 345 345 341 344 342 341 341 341 330 340 340 342 342 342 338 335 327 328 325 324 323 330
324 324 324 327 324 324 324 325 329 330 328 328 328 328 333 343 345 348 347 347 348 349 348 348 349 347 347 348 348 344 345 344 344 342 342 343 338 341 342 340 342 342 339 334 334 338 340 339 338
324 324 325 327 326 326 327 327 329 329 328 328 327 326 326 334 341 347 346 347 347 348 349 349 350 349 347 352 349 348 345 346 346 345 343 343 344 340 342 342 339 344 342 341 342 339 340 342 339
324 325 326 328 329 328 329 330 330 330 329 327 328 327 327 328 339 343 347 350 347 348 354 352 351 351 350 349 353 348 349 348 348 349 348 347 347 348 346 347 346 346 347 345 343 343 342 343 344
323 325 329 331 332 331 331 332 332 330 329 327 328 327 328 328 330 342 345 345 348 348 340 353 355 356 354 351 351 354 349 350 351 348 350 350 350 351 353 351 350 348 348 348 347 347 347 348 348
322 328 333 330 331 331 332 335 331 330 330 329 328 328 328 329 328 329 342 343 340 338 344 355 353 357 358 359 358 355 353 354 351 352 350 353 353 350 351 351 350 348 347 347 347 346 348 347 348
322 331 336 335 330 331 332 333 330 330 332 331 329 326 328 330 330 327 327 333 335 334 331 341 344 353 358 358 360 359 358 356 356 354 352 352 352 354 352 353 349 351 351 351 351 349 348 349 350
323 330 333 337 330 331 330 329 330 333 332 328 327 326 328 329 329 328 326 326 328 327 328 329 338 339 356 357 356 356 357 355 357 353 354 351 352 353 353 352 352 349 349 351 348 347 345 348 349
326 328 331 331 326 326 325 328 329 332 329 327 327 326 328 329 329 327 328 327 327 328 328 334 331 336 344 349 359 356 353 354 353 353 353 352 352 354 353 352 350 350 350 351 352 350 350 348 344
321 325 323 323 328 322 322 322 321 323 325 330 326 326 327 328 327 332 330 330 329 329 329 330 331 334 341 344 345 348 352 348 351 350 351 350 353 332 350 348 341 349 350 347 349 348 348 348 348
319 319 321 320 320 320 321 322 322 321 321 328 328 325 327 329 328 333 333 333 333 332 331 334 336 336 337 349 346 347 345 349 349 350 352 352 350 349 351 350 349 351 350 348 348 349 347 351 346
319 318 319 320 321 321 321 322 324 323 322 327 328 326 327 328 329 334 335 335 335 335 334 333 333 339 336 343 346 350 350 350 350 347 352 353 351 351 353 350 350 350 351 349 346 345 348 346 344
318 319 319 320 320 321 321 320 321 324 322 322 324 325 327 329 330 331 333 334 336 340 342 341 341 344 345 348 347 350 351 350 349 348 351 355 353 352 351 351 350 350 349 348 344 340 340 340 342
318 320 320 320 321 323 322 321 320 323 324 323 323 328 328 328 330 330 332 334 336 340 343 344 344 345 345 345 347 347 348 350 352 349 349 348 349 349 350 349 348 347 344 341 337 336 337 337 336
319 323 323 321 321 321 322 322 324 324 324 323 324 328 328 326 328 328 330 331 332 333 336 337 337 337 338 338 338 338 337 346 348 348 340 346 346 347 345 341 339 337 336 334 333 334 333 335 335
320 322 322 323 323 320 321 323 324 325 324 325 328 327 327 328 327 328 328 328 327 328 328 328 328 329 329 330 330 331 330 332 333 333 330 329 330 330 337 338 334 333 334 335 332 330 331 329 327
320 321 321 324 324 327 324 328 327 327 328 329 328 329 329 330 330 328 327 328 328 327 327 328 327 327 327 327 327 326 326 326 326 326 328 330 329 329 331 332 335 334 332 332 330 331 330 328 327
321 320 321 324 331 334 328 330 329 328 328 329 328 330 329 329 327 327 326 328 327 326 325 325 324 325 324 324 323 323 324 323 323 323 324 323 324 324 324 326 327 327 330 333 333 332 332 330 328
322 325 326 325 325 332 335 336 330 330 328 329 329 327 327 326 325 325 325 324 324 324 324 323 322 322 322 321 320 320 320 320 320 320 321 322 322 322 322 323 324 325 327 328 330 331 331 331 331
321 322 328 332 328 328 335 335 333 330 329 329 327 326 326 325 324 324 323 323 323 322 321 320 320 319 319 318 318 318 318 318 319 320 320 320 320 320 320 320 321 321 321 322 324 327 328 330 330
Wind_Speed
12 16 17 18 7 7 16 19 16 3 5 7 6 7 14 8 11 5 15 26 29 28 28 24 22 19 15 13 14 16 16 15 16 15 14 14 14 14 14 13 12 10 8 6 5 4 5 6 6
13 15 15 8 10 12 14 20 17 12 14 6 1 6 22 13 5 13 15 30 24 26 28 25 23 20 16 13 14 17 17 16 17 15 14 13 12 13 14 11 10 8 6 4 3 4 5 5 5
14 13 8 6 13 16 18 10 16 14 11 5 5 23 10 11 10 11 22 31 27 24 24 26 24 21 17 14 14 18 18 16 16 15 14 12 12 12 13 10 8 6 4 3 4 4 5 4 4
11 12 7 11 19 21 25 13 5 18 5 4 8 16 13 43 8 15 26 28 26 24 21 27 24 21 17 15 16 19 18 16 16 15 13 12 11 12 12 11 8 6 4 3 4 5 4 3 2
18 8 12 15 20 22 21 1 10 8 13 10 10 17 21 23 29 30 29 26 27 26 22 28 24 21 18 17 17 19 19 17 16 15 13 12 11 12 13 11 9 6 5 4 5 5 5 4 4
10 9 13 16 21 21 22 13 10 9 17 4 7 15 17 30 31 31 28 28 27 29 23 27 24 22 19 17 17 19 18 17 16 15 13 12 12 12 13 12 9 7 6 6 5 5 5 5 5
15 13 16 20 19 23 20 17 10 9 14 10 5 8 14 25 30 31 29 29 29 26 26 25 24 22 19 17 16 17 17 17 16 15 13 12 12 13 13 12 10 8 7 6 6 6 6 6 7
13 13 22 19 18 24 17 12 4 9 15 10 8 5 16 21 27 28 28 28 26 24 22 23 22 22 21 19 17 17 17 17 16 15 13 13 13 13 13 12 10 9 8 8 8 7 7 8 8
20 14 16 22 20 24 15 22 1 12 6 5 8 14 10 11 21 25 23 24 24 26 23 23 22 22 20 18 20 18 17 16 15 14 14 14 14 14 12 12 10 9 9 10 10 10 9 10 11
15 13 21 17 15 14 7 24 10 11 7 9 12 7 27 40 14 19 21 21 24 28 25 26 26 24 23 19 19 19 17 18 17 15 16 16 13 14 13 12 12 12 13 13 13 12 11 12 12
20 16 18 14 10 2 8 20 20 1 9 5 4 14 15 10 21 19 21 23 24 26 26 28 29 27 25 23 21 19 17 16 15 16 16 17 15 17 16 15 17 16 16 17 14 14 15 14 10
23 22 21 20 4 4 3 12 17 18 10 11 11 6 4 12 16 15 19 25 26 28 26 30 28 27 25 24 21 21 21 20 19 19 20 15 19 17 17 17 15 16 14 15 14 17 15 11 11
26 24 23 21 8 3 5 10 10 22 21 16 13 13 10 15 20 12 8 17 21 25 27 29 26 25 24 17 22 24 22 24 23 22 23 21 17 17 18 17 19 20 16 16 13 18 17 17 15
23 23 23 22 15 10 10 12 12 19 21 24 14 11 16 11 6 18 6 14 17 9 1 28 26 25 22 21 13 19 18 19 20 21 25 24 21 19 18 18 18 16 15 15 20 17 18 18 19
24 24 14 13 12 7 13 20 21 17 17 21 17 16 15 13 10 9 20 15 16 13 19 22 22 24 22 21 18 11 17 17 15 19 18 26 23 23 16 18 18 18 17 18 15 12 10 11 16
26 14 17 24 20 14 9 16 20 18 19 16 16 20 22 15 10 12 11 12 30 6 39 36 21 23 24 19 16 14 14 13 18 15 20 22 23 20 20 19 18 16 16 17 15 15 14 16 19
21 13 12 26 21 16 15 13 21 24 24 12 15 17 21 14 8 13 8 12 31 31 11 9 13 21 27 23 17 16 16 18 17 19 19 23 24 20 24 18 22 18 16 15 15 14 15 19 14
25 21 23 33 23 19 15 18 17 18 18 11 14 19 13 13 7 12 9 10 12 9 11 11 5 16 19 20 20 16 17 18 18 21 22 22 26 27 23 22 18 19 17 17 12 20 17 10 13
24 21 25 23 15 20 19 16 13 14 13 16 13 13 14 11 18 8 12 13 15 13 8 2 11 10 10 11 18 16 15 17 20 21 24 25 26 24 23 20 22 17 21 18 10 7 4 10 13
28 26 23 20 20 18 15 14 13 17 14 20 14 8 11 16 12 6 11 10 8 11 10 8 8 11 10 16 17 16 18 19 22 23 24 22 19 13 25 24 20 31 26 21 16 10 11 12 13
23 25 22 14 12 14 9 14 13 13 18 19 13 12 10 5 6 6 6 8 10 8 7 7 8 11 14 15 15 17 19 12 12 18 20 25 19 25 25 23 23 20 22 16 14 15 14 12 13
22 24 22 20 16 12 17 13 18 16 18 19 22 18 15 11 4 5 0 3 2 5 6 5 6 6 9 13 16 11 15 14 15 20 23 26 24 21 18 20 19 23 13 15 12 16 16 14 13
22 23 11 15 13 16 20 14 10 20 16 17 11 11 12 12 8 6 7 3 4 11 12 8 7 4 3 4 9 9 12 13 13 18 8 16 17 15 17 18 19 19 20 13 15 14 17 15 15
21 14 16 17 11 12 19 15 14 17 21 20 15 9 8 8 10 8 8 8 12 13 13 12 12 11 8 7 4 7 10 12 11 15 0 4 8 10 13 13 19 16 13 14 13 15 12 12 12
15 11 8 9 10 13 18 16 14 12 23 22 19 12 7 3 9 4 7 12 13 13 12 13 15 16 16 17 17 14 13 8 8 6 9 5 7 13 13 11 12 9 10 13 9 11 13 14 14
22 18 11 17 11 16 18 17 15 12 20 19 18 15 13 10 12 8 9 14 12 12 13 13 15 14 14 14 13 14 12 16 16 14 12 15 13 13 7 15 11 11 12 13 17 17 15 15 18
19 18 20 11 14 10 11 13 13 19 19 21 18 15 15 8 9 11 10 17 18 14 7 7 10 9 9 9 10 10 13 14 13 11 10 12 11 12 10 7 5 13 17 17 19 19 20 20 22
17 13 16 9 16 4 4 14 11 18 19 20 18 14 9 7 8 7 4 9 7 11 8 4 5 4 5 6 6 8 8 10 11 12 13 14 15 17 19 17 15 17 15 17 20 22 24 27 29
10 13 13 14 11 10 4 5 8 16 15 15 16 15 12 7 7 8 7 11 5 4 10 5 4 7 3 5 6 6 8 10 10 11 12 12 13 14 16 17 19 20 21 24 25 27 29 30 29
16 14 11 7 12 7 5 8 3 4 10 9 14 14 12 7 3 6 4 6 4 3 4 2 2 7 5 6 8 10 9 11 12 12 14 16 17 17 18 20 21 23 24 24 26 28 30 30 31
Wind_Direction
284 283 269 265 256 232 259 254 253 18 186 68 35 2 114 115 179 163 111 116 127 142 152 153 156 157 159 163 166 168 165 161 159 155 142 136 132 136 138 136 130 125 120 118 117 114 110 106 104
287 291 275 274 242 254 249 250 254 189 99 80 339 155 73 73 90 123 122 125 131 144 149 156 157 157 159 161 163 168 170 167 165 160 150 143 140 147 151 148 138 129 126 126 128 125 124 118 111
278 264 274 241 236 246 254 353 12 217 109 147 248 91 78 317 285 130 126 122 131 145 149 157 158 157 158 158 161 167 171 172 169 164 157 152 150 158 162 162 155 145 145 143 138 144 143 132 128
257 233 241 262 251 242 253 288 334 325 99 210 241 93 118 139 232 131 142 133 141 146 150 156 158 157 158 158 163 166 171 175 173 171 166 163 162 168 169 172 169 162 163 167 170 171 168 166 167
244 265 235 243 244 253 254 164 301 247 270 192 252 120 133 171 124 146 144 142 143 146 156 159 161 161 163 161 165 169 173 178 179 176 174 175 175 177 178 181 179 176 185 193 193 193 195 204 224
234 226 252 234 247 245 258 124 270 247 289 245 219 137 125 135 145 149 148 148 145 138 149 162 163 165 167 165 169 174 176 180 183 183 183 186 186 187 187 188 188 191 200 210 210 211 220 229 241
238 229 234 250 250 249 235 247 215 252 278 303 316 171 144 149 147 149 146 144 137 135 150 158 164 168 170 171 175 177 181 185 188 191 192 196 197 195 194 196 198 206 214 218 226 229 235 248 252
230 247 248 237 258 265 267 237 171 245 255 4 310 60 160 146 147 144 146 143 142 141 150 157 164 166 172 176 180 182 186 189 192 196 202 205 202 200 201 204 210 218 227 230 235 239 242 250 255
257 242 242 246 230 256 360 314 163 250 339 323 313 84 95 30 139 145 148 145 148 146 153 161 165 168 167 175 183 185 186 189 195 201 207 204 200 206 209 215 222 232 241 243 243 245 247 254 260
239 239 238 243 274 235 330 297 287 224 230 248 268 91 131 118 240 160 160 158 158 153 161 165 168 169 171 171 186 185 191 195 200 204 205 198 192 218 210 229 227 237 245 249 247 248 252 255 264
219 243 246 247 27 46 191 304 329 288 244 226 60 33 10 192 180 166 172 169 166 165 166 164 170 170 173 171 180 181 190 193 201 199 209 205 207 213 217 221 224 235 244 248 251 252 252 254 257
225 220 251 268 82 17 300 334 319 325 262 6 356 11 64 326 283 186 186 174 169 167 169 158 167 168 180 167 169 178 189 189 197 202 206 216 214 223 213 214 229 232 228 240 233 250 250 240 242
230 226 230 250 146 231 319 295 305 301 323 339 321 326 312 151 260 235 202 170 177 164 160 156 163 172 191 177 172 176 190 190 194 200 203 208 222 226 222 229 231 228 222 228 219 231 245 236 239
223 234 228 236 264 206 261 288 301 285 313 314 284 285 285 281 259 324 293 59 70 346 355 154 165 178 194 200 175 187 188 200 196 199 202 204 208 226 227 226 241 255 253 232 220 226 234 241 250
230 233 224 236 265 226 264 266 250 269 284 291 331 299 287 277 255 183 282 71 25 8 113 246 171 181 187 205 211 192 203 216 206 208 214 209 205 214 226 232 224 228 242 258 264 276 284 277 276
227 205 254 220 202 235 173 254 274 267 250 274 286 296 290 264 256 282 189 159 198 43 239 184 177 187 188 191 200 212 222 215 221 227 214 207 209 215 229 230 234 233 231 242 240 245 251 256 258
214 227 198 272 219 185 181 230 257 251 242 252 264 280 272 263 208 263 288 180 178 186 217 189 188 184 192 188 192 207 216 225 231 224 231 215 205 211 220 228 226 240 226 223 236 238 235 248 269
206 189 243 223 211 200 185 235 250 260 235 231 256 289 277 307 258 223 233 298 345 234 212 221 231 221 185 189 191 207 220 225 233 236 242 226 214 209 223 221 228 239 226 228 237 246 240 271 299
214 206 222 235 193 185 211 223 235 227 222 213 248 272 273 272 306 34 39 6 347 333 338 332 231 245 215 181 182 199 222 227 226 234 241 237 223 208 197 208 229 228 230 225 235 225 280 265 277
215 215 227 232 187 198 199 231 240 254 220 218 217 274 258 265 288 36 22 349 338 327 315 292 273 251 248 220 219 226 217 225 229 229 234 232 202 271 235 219 227 233 227 223 231 244 252 265 267
222 235 236 235 175 184 215 234 234 229 250 219 218 251 274 183 138 321 29 12 336 314 307 315 277 259 246 236 228 234 254 262 254 231 234 225 217 208 218 225 223 244 229 197 217 221 239 231 259
219 228 241 213 191 218 198 243 208 212 219 204 221 199 179 200 161 112 150 37 27 338 14 348 306 285 247 238 243 252 229 234 246 255 227 208 217 213 224 232 235 235 233 235 227 225 214 212 231
231 219 221 241 216 212 207 219 240 188 209 212 219 210 185 153 173 120 74 13 46 53 44 33 11 5 287 322 247 290 301 263 271 291 246 186 191 220 225 226 233 239 239 234 230 210 224 220 229
228 233 195 234 230 211 239 204 235 193 197 200 210 139 93 108 113 127 103 72 45 65 67 57 55 44 32 18 338 312 321 324 301 300 164 176 215 231 236 232 224 223 227 236 240 231 223 226 239
216 210 208 202 227 239 227 212 235 188 182 191 185 133 128 155 101 65 102 81 74 63 79 75 65 55 45 42 47 46 35 10 333 341 10 265 234 221 224 206 213 211 231 243 254 238 234 238 240
201 207 217 199 211 229 232 215 230 136 179 154 134 146 166 152 147 149 115 125 96 60 62 77 66 63 56 52 47 33 22 32 33 30 14 11 19 26 269 222 211 221 231 250 254 250 249 249 251
191 220 236 305 295 254 234 99 100 124 128 142 147 146 159 148 130 153 146 142 127 103 62 81 86 73 61 49 40 31 14 10 6 358 358 344 339 338 334 349 307 250 243 249 258 256 248 252 250
227 210 228 216 253 346 222 155 167 164 157 151 154 153 130 147 171 176 119 100 73 130 145 85 57 71 60 33 17 12 2 357 349 345 339 329 319 306 303 309 299 291 280 265 258 258 255 253 251
189 232 254 244 246 230 158 330 295 166 166 167 150 149 144 166 189 170 173 137 181 176 115 84 6 333 22 6 342 335 339 335 325 322 314 308 303 300 296 293 293 285 276 270 266 261 258 258 259
236 226 233 244 253 306 77 132 79 84 127 158 162 155 151 132 37 330 58 81 43 91 340 318 115 303 304 331 328 320 312 306 304 299 296 296 294 293 292 290 287 283 279 277 274 268 260 259 261